Regional Weather Roundup
Issued by NWS

Home | Current Version | Previous Version | Text Only | Print | Product List | Glossary On
Versions: 1 2 3 4 5 6 7 8 9 10 11 12 13 14 15 16 17 18 19 20 21 22 23 24 25 26 27 28 29 30 31 32 33 34 35 36 37 38 39 40 41 42 43 44 45 46 47 48 49 50
000
ASUS44 KBMX 222010
RWRAL

ALABAMA REGIONAL WEATHER ROUNDUP
NATIONAL WEATHER SERVICE BIRMINGHAM AL
200 PM CST SUN JAN 22 2017

NOTE: "FAIR" INDICATES FEW OR NO CLOUDS BELOW 12,000 FEET
WITH NO SIGNIFICANT WEATHER AND/OR OBSTRUCTIONS TO VISIBILITY.

THE REMARK "TC" DENOTES TEMPERATURE IN DEGREES CELSIUS.

ALZ001>011-014-016>018-020-222100-
NORTH ALABAMA

CITY           SKY/WX    TMP DP  RH WIND       PRES   REMARKS
MUSCLE SHOALS  CLOUDY    58  53  84 NW10      29.29S
HUNTSVILLE     CLOUDY    63  58  83 NW9       29.25F
DECATUR        RAIN      59  58  96 NW8       29.27F FOG
HALEYVILLE     RAIN      53  50  89 W13       29.31R
GADSDEN        RAIN      64  60  87 NE9       29.22F
$$

ALZ012-013-022-023-030>036-040>044-222100-
WEST CENTRAL ALABAMA

CITY           SKY/WX    TMP DP  RH WIND       PRES   REMARKS
TUSCALOOSA     RAIN      52  50  93 NW3       29.33F FOG
$$

ALZ015-024>027-033>036-040>044-222100-
CENTRAL ALABAMA

CITY           SKY/WX    TMP DP  RH WIND       PRES   REMARKS
BIRMINGHAM     TSTM      54  53  97 W25G39    29.32R VSB 1
MONTGOMERY     CLOUDY    59  49  69 W21G36    29.28R
SHELBY CO ARPT RAIN      52  51  97 NW16G38   29.29F FOG
MAXWELL AFB    CLOUDY    57  52  82 W15G26    29.27R
GREENVILLE     PTSUNNY   58  48  69 W16G28    29.32R
$$

ALZ019-021-028-029-037-038-045>048-222100-
EAST CENTRAL ALABAMA

CITY           SKY/WX    TMP DP  RH WIND       PRES   REMARKS
ANNISTON       TSTM      61  60  97 N7        29.18F FOG
ALEXANDER CITY CLOUDY    63  61  94 W15G26    29.17R
AUBURN         RAIN      63  63 100 SW25G56   29.16F SQUALL  FOG
$$

ALZ051>064-222100-
SOUTHWEST ALABAMA

CITY           SKY/WX    TMP DP  RH WIND       PRES   REMARKS
MOBILE         MOSUNNY   65  45  48 W13G22    29.39S
BROOKLEY FIELD MOSUNNY   68  46  45 W15G24    29.39F
EVERGREEN      MOSUNNY   60  50  69 W8G18     29.35R
$$

ALZ049-050-065>069-222100-
SOUTHEAST ALABAMA

CITY           SKY/WX    TMP DP  RH WIND       PRES   REMARKS
DOTHAN         CLOUDY    70  67  90 SW26G35   29.27R
OZARK          PTSUNNY   64  59  82 W22G36    29.30R
TROY           CLOUDY    58  54  86 W21G36    29.33R
EUFAULA        PTSUNNY   68  65  90 S8        29.18F
$$



USA.gov is the U.S. government's official web portal to all federal, state and local government web resources and services.